P/2006 R2 (Christensen)

Epoch 2006 July 4.0 TT = JDT 2453920.5  

T 2006 June 15.22737 TT                                 Nakano

q   3.0392334            (2000.0)            P               Q

n   0.11584901     Peri.  188.87516     +0.84425920     +0.50345233

a   4.1674893      Node   139.15460     -0.47285834     +0.86111804

e   0.2707280      Incl.   16.31672     -0.25225264     +0.07079176

P   8.51 (+/- 0.06 day)

From 124 observations 2006 Aug. 30-Dec. 16, mean residual 0".68.

Residuals in seconds of arc 

2006/                     060916 415  0.6-  0.5-    060926 703  0.1-  0.5+  

060830 699  0.6-  1.5+    060917 415  0.3+  0.2+    060926 703  0.9-  1.6+  

060830 699  0.8-  0.2+    060917 415  0.1+  0.7-    060927 423  0.2+  0.5+  

060830 699  0.2+  0.2+    060917 213  0.2-  0.7-    060927 423  0.1+  0.1-  

060830 699  0.5-  1.9+    060917 213  0.4+  0.5-    060927 204  0.1+  0.1+  

060914 703  0.5+  0.3-    060917 213  0.5+  0.4-    060928 204  0.2+  0.0   

060914 703  0.5+  1.6-    060918 349  0.6-  0.8+    060928 423  0.3+  0.6-  

060914 703  0.6-  1.2-    060918 349  0.9-  0.5+    060928 423  0.9+  0.1+  

060914 703  1.4+  1.3-    060918 349  0.8-  0.9+    061001 423  0.5-  0.1+  

060914 703  0.1+  1.4-    060919 213  0.0   0.7+    061001 423  0.2+  0.7-  

060914 703  0.5+  0.4-    060919 213  0.1+  0.6+    061007 585  1.2-  0.2-  

060914 703  0.2-  0.6-    060919 213  0.1+  0.7+    061007 204 (2.7-  1.4+) 

060914 703  0.1-  0.6-    060920 673  0.1+  0.4-    061010 423  0.7+  0.3-  

060914 E12  0.6+  0.2-    060920 673  0.6+  0.5-    061010 423 (1.1+  2.4+) 

060915 844  0.3-  0.9-    060920 673  1.1+  0.2-    061010 415  1.0+  0.3-  

060915 844  0.9-  0.1+    060920 703  0.5+  0.3-    061010 415  0.2-  0.3-  

060915 844  0.5-  0.2-    060920 703  0.9+  0.3+    061011 673  0.6+  1.3-  

060915 844  0.1-  1.0-    060920 703  0.4-  0.8-    061011 673  0.2+  1.2-  

060915 I77 (2.0-  0.5-)   060920 703  0.1-  0.5+    061011 673  0.2+  1.1-  

060915 850  0.1+  0.9+    060921 215  0.3-  1.2-    061011 673  0.3-  1.4-  

060915 I77  0.0   0.4+    060921 585  1.5+  0.4+    061011 423  0.0   1.3+  

060915 844  1.0-  0.1+    060921 585  1.2+  0.9-    061011 423  0.7-  0.2+  

060915 I77  0.3+  0.7+    060921 585 (3.1-  0.1+)   061012 423  0.8-  1.1+  

060915 850  0.8+  0.1-    060921 585  0.8-  1.9-    061012 423  0.6+  0.9+  

060915 850  0.9-  0.8+    060921 585 (2.6-  0.3+)   061013 423  0.5+  0.8+  

060915 854  0.3-  0.0     060921 246  1.0+  0.1+    061013 423  0.0   0.0   

060915 854  0.8+  1.1+    060921 246  0.0   0.7+    061018 423  0.2-  1.8+  

060915 703  0.2+  0.2+    060921 246  0.0   0.8+    061027 703  0.8-  1.1+  

060915 703  0.6+  0.3-    060921 246  0.0   1.1+    061027 703  0.3-  1.2+  

060915 703  0.2+  1.0-    060921 246  0.1+  0.1-    061027 703  1.0-  0.9+  

060915 854  0.6-  0.3+    060921 246  0.4+  0.2-    061029 415  0.4-  0.2-  

060915 703  0.0   1.1-    060923 349  0.4+  0.4+    061029 415  0.4-  0.4-  

060915 423  0.4-  0.0     060923 349  0.4+  0.2+    061110 673  0.2-  0.3-  

060915 423  0.4+  1.2+    060923 349  0.6+  0.5+    061110 673  0.0   0.2-  

060915 E12  0.0   0.4+    060923 585 (2.8+  0.9+)   061110 673  0.1-  0.2+  

060915 E12  0.6-  0.2-    060923 585  0.6-  1.2-    061110 673  0.4+  0.3+  

060915 E12  0.3-  0.2+    060923 585  0.4-  0.3+    061111 G96  0.0   1.1-  

060915 E12  1.1-  0.2-    060923 585 (0.6+  2.1-)   061111 G96  0.2+  0.8-  

060915 E12  0.3+  0.4+    060923 585  0.4-  0.6-    061111 G96  0.2-  0.9-  

060915 E12  0.7-  0.2+    060924 423  0.0   0.2-    061111 G96  1.0-  0.3-  

060915 E12  0.5-  0.5-    060924 423  0.5+  0.2+    061112 130 (2.1+  0.5-) 

060915 E12  0.6+  0.3+    060925 415  0.3+  0.2+    061115 215  1.6+  1.7+  

060915 E12  0.3-  0.5+    060925 415  0.5+  0.2-    061216 G96 (2.7-  0.7-) 

060915 E12  0.1-  0.7-    060926 703  0.5-  0.6+    061216 G96  0.1+  0.2-  

060916 415  0.3+  0.9-    060926 703  0.7-  1.5+                            

NAKANO

         **** Don't distribute anyone except personal use only ****

                (C) Copyright 2007 OAA/ComputingSection

write mail from CFAD0::NAKANO on 2007-03-05 06:21:26(JST).

 

    P/2006 R2 (Christensen)

Epoch 2006 July 4.0 TT = JDT 2453920.5  

T 2006 June 15.23553 TT                                 Nakano

q   3.0392366            (2000.0)            P               Q

n   0.11584930     Peri.  188.87698     +0.84427423     +0.50342725

a   4.1674823      Node   139.15449     -0.47283246     +0.86113198

e   0.2707260      Incl.   16.31665     -0.25225087     +0.07080055

P   8.51 (+/- 0.09 day)

From 123 observations 2006 Aug. 30-Nov. 15, mean residual 0".68.



NAKANO

         **** Don't distribute anyone except personal use only ****

                (C) Copyright 2006 OAA/ComputingSection

write mail from CFAD0::NAKANO on 2006-12-06 04:14:31(JST).

 





    P/2006 R2 (Christensen)

T 2006 June 14.97815 TT                                 Nakano

q   3.0390652            (2000.0)            P               Q

n   0.11583016     Peri.  188.82061     +0.84379151     +0.50423459

a   4.1679415      Node   139.15593     -0.47365968     +0.86068057

e   0.2708475      Incl.   16.31746     -0.25231409     +0.07054377

P   8.51 (+/- 0.11 day)

From 115 observations 2006 Aug. 30-Oct. 29.



NAKANO

         **** Don't distribute anyone except personal use only ****

                (C) Copyright 2006 OAA/ComputingSection

write mail from CFAD0::NAKANO on 2006-11-04 04:16:29(JST).

 





    P/2006 R2 (Christensen)

T 2006 June 14.67838 TT                                 Nakano

q   3.0359574            (2000.0)            P               Q

n   0.11582713     Peri.  188.75280     +0.84294792     +0.50569555

a   4.1680142      Node   139.12844     -0.47506005     +0.85982489

e   0.2716058      Incl.   16.29511     -0.25250099     +0.07052075

P   8.51 (+/- 0.59 day)

From 72 observations 2006 Aug. 30-Sept. 21.



NAKANO

         **** Don't distribute anyone except personal use only ****

                (C) Copyright 2006 OAA/ComputingSection

write mail from CFAD0::NAKANO on 2006-09-25 05:53:58(JST).

 





◎P/2006 R2の軌道と予報位置です



 上尾の門田健一氏から,9月18日のこの彗星の追跡観測が報告されました.

氏のCCD全光度は17.2等でした.



    P/2006 R2 (Christensen)

T 2006 June 25.12587 TT                                 Nakano

q   3.0190365            (2000.0)            P               Q

n   0.11643354     Peri.  191.09961     +0.86002182     +0.47665436

a   4.1535296      Node   138.77878     -0.44443767     +0.87508532

e   0.2731395      Incl.   16.04262     -0.25067434     +0.08382301

P   8.46 (+/- 1.98 days)

From 36 observations 2006 Aug. 30-Sept. 18.

 

Date/        TT  R.A.(2000) Decl.     Delta   r     Daily motion  Mag.  Moon Age

              h    h  m       。  ,                      ,  / PA 。  m1      。

2006 Sept.20 14  23 13.35  -17 30.3   2.085  3.053     9.9 / 229  17.7  169  .03

          21 14  23 12.83  -17 36.8   2.089  3.053     9.7 / 229  17.7  167  .01

          22 14  23 12.31  -17 43.2   2.094  3.054     9.5 / 229  17.7  158  .00

          23 14  23 11.81  -17 49.4   2.100  3.055     9.3 / 230  17.7  147  .01

          24 14  23 11.31  -17 55.4   2.105  3.056     9.1 / 230  17.8  136  .04

          25 14  23 10.83  -18 01.2   2.111  3.056     8.8 / 230  17.8  124  .08

          26 14  23 10.35  -18 06.9   2.117  3.057     8.6 / 230  17.8  112  .15

          27 14  23 09.89  -18 12.3   2.123  3.058     8.3 / 231  17.8  100  .22

          28 14  23 09.43  -18 17.6   2.130  3.059     8.1 / 231  17.8   87  .31

          29 14  23 08.99  -18 22.7   2.137  3.060     7.8 / 231  17.8   75  .41

          30 14  23 08.57  -18 27.6   2.144  3.060     7.5 / 231  17.8   62  .51

     Oct.  1 14  23 08.15  -18 32.3   2.151  3.061     7.3 / 232  17.8   49  .62

           2 14  23 07.75  -18 36.8   2.159  3.062     7.0 / 232  17.8   35  .73

           3 14  23 07.36  -18 41.1   2.166  3.063     6.7 / 232  17.8   22  .82

           4 14  23 06.99  -18 45.2   2.174  3.064     6.4 / 232  17.8   12  .90

           5 14  23 06.63  -18 49.2   2.182  3.065     6.1 / 233  17.8   15  .96

           6 14  23 06.29  -18 52.9   2.191  3.066     5.8 / 233  17.9   28 1.00

           7 14  23 05.96  -18 56.4   2.200  3.067     5.5 / 233  17.9   42 1.00

           8 14  23 05.66  -18 59.7   2.208  3.067     5.2 / 233  17.9   57  .97

           9 14  23 05.36  -19 02.8   2.217  3.068     4.9 / 233  17.9   72  .91

          10 14  23 05.09  -19 05.8   2.227  3.069     4.6 / 233  17.9   86  .84

          11 14  23 04.83  -19 08.5   2.236  3.070     4.3 / 234  17.9  100  .75

          12 14  23 04.58  -19 11.0   2.246  3.071     3.9 / 234  17.9  113  .65

          13 14  23 04.36  -19 13.4   2.256  3.072     3.6 / 234  17.9  125  .54

          14 14  23 04.15  -19 15.5   2.266  3.073     3.3 / 234  17.9  138  .44

          15 14  23 03.97  -19 17.4   2.276  3.074     3.0 / 234  17.9  149  .35

          16 14  23 03.80  -19 19.2   2.286  3.075     2.6 / 234  18.0  160  .26

          17 14  23 03.65  -19 20.7   2.297  3.076     2.3 / 234  18.0  168  .18

          18 14  23 03.52  -19 22.1   2.308  3.077     2.0 / 234  18.0  167  .11

          19 14  23 03.40  -19 23.2   2.319  3.078     1.6 / 233  18.0  158  .06

          20 14  23 03.31  -19 24.2   2.330  3.079     1.3 / 233  18.0  148  .02

          21 14  23 03.24  -19 25.0   2.341  3.080     1.0 / 232  18.0  136  .00

          22 14  23 03.18  -19 25.6   2.353  3.081      .6 / 229  18.0  125  .00

          23 14  23 03.15  -19 26.0   2.364  3.082      .3 / 221  18.0  113  .02

          24 14  23 03.14  -19 26.2   2.376  3.083      .1 / 116  18.0  101  .05

          25 14  23 03.14  -19 26.3   2.388  3.084      .4 /  69  18.1   88  .11

          26 14  23 03.17  -19 26.1   2.400  3.085      .7 /  64  18.1   76  .18

          27 14  23 03.22  -19 25.8   2.412  3.086     1.1 /  62  18.1   63  .26

          28 14  23 03.28  -19 25.3   2.425  3.087     1.4 /  61  18.1   51  .36

          29 14  23 03.37  -19 24.7   2.437  3.088     1.7 /  61  18.1   38  .47

          30 14  23 03.47  -19 23.8   2.450  3.089     2.0 /  60  18.1   25  .58

          31 14  23 03.60  -19 22.8   2.463  3.090     2.4 /  60  18.1   14  .69

     Nov.  1 14  23 03.74  -19 21.6   2.476  3.091     2.7 /  60  18.1   12  .79

NAKANO

         **** Don't distribute anyone except personal use only ****

                (C) Copyright 2006 OAA/ComputingSection

write mail from CFAD0::NAKANO on 2006-09-22 01:27:16(JST).

 



戻ります。